Hourly Data Report for October 18, 2013

All times are specified in Local Standard Time (LST). Add 1 hour to adjust for Daylight Saving Time where and when it is observed.

SAINT JOHN A
NEW BRUNSWICK

45°18'58.000" N
65°53'24.000" W
108.80 m
8104901
71609
YSJ

Download Data

Hourly Data (October 2013)
Hourly Data Report for October 18, 2013
Temp Definition
°C
Dew Point Temp Definition
°C
Rel Hum Definition
%
Wind Dir Definition
10's deg

Wind Spd Definition
km/h
Visibility Definition
km
Stn Press Definition
kPa
Hmdx Definition


Wind Chill Definition


Weather Definition


TIME
00:00 Legend Double Dagger 11.2 11.2 100 22 14 0.4 99.49     Fog
01:00 Legend Double Dagger 10.9 10.9 100 21 10 0.4 99.45     Fog
02:00 Legend Double Dagger 10.6 10.6 100 20 2 0.8 99.42     Fog
03:00 Legend Double Dagger 10.5 10.5 100 24 5 0.8 99.39     Fog
04:00 Legend Double Dagger 10.2 10.2 100 21 10 0.8 99.43     Fog
05:00 Legend Double Dagger 10.1 10.1 100 19 11 1.0 99.45     Fog
06:00 Legend Double Dagger 10.1 10.1 100 13 6 0.4 99.32     Fog
07:00 Legend Double Dagger 10.0 10.0 100 14 8 0.4 99.26     Fog
08:00 Legend Double Dagger 10.6 10.6 100 19 12 0.4 99.28     Fog
09:00 Legend Double Dagger 10.7 10.7 100 17 8 0.4 99.24     Fog
10:00 Legend Double Dagger 11.2 11.2 100 15 10 0.8 99.18     Fog
11:00 Legend Double Dagger 11.2 11.2 100 12 13 6.4 99.07     Rain,Fog
12:00 Legend Double Dagger 11.4 11.1 98 12 15 3.2 98.94     Rain,Fog
13:00 Legend Double Dagger 11.8 11.5 98 13 23 2.4 98.85     Rain,Fog
14:00 Legend Double Dagger 11.7 11.4 98 15 14 2.4 98.82     Rain,Fog
15:00 Legend Double Dagger 12.7 12.6 99 16 11 2.4 98.77     Rain,Fog
16:00 Legend Double Dagger 13.5 13.5 100 24 8 1.6 98.78     Drizzle,Fog
17:00 Legend Double Dagger 13.5 12.7 95 30 23 4.8 98.85     Rain Showers,Fog
18:00 Legend Double Dagger 11.3 10.2 93 31 15 24.1 98.97     LegendNANA
19:00 Legend Double Dagger 10.8 9.9 94 31 12 24.1 99.08     LegendNANA
20:00 Legend Double Dagger 10.3 9.7 96 29 13 24.1 99.15     Clear
21:00 Legend Double Dagger 9.7 9.4 98 25 11 24.1 99.23     LegendNANA
22:00 Legend Double Dagger 8.8 8.7 99 25 7 24.1 99.29     LegendNANA
23:00 Legend Double Dagger 9.9 9.5 97 25 10 24.1 99.33     Clear

Notes on Data Quality.

Legend

  • E = Estimated
  • M = Missing
  • NA = Not Available
  • ‡ = Partner data that is not subject to review by the National Climate Archives
Date modified: